#timestamp,LO_Frequency,Hit,StdDev 
1535886015.2,286046996.7,P
1535886035.1,286046998.3,N
1535886036.0,286046998.3,N
1535886055.8,286046998.9,N
1535886075.7,286046996.9,N
1535886095.5,286046997.9,N
1535886115.3,286046997.9,N
1535886135.2,286046998.7,N
1535886155.9,286046996.6,N
1535886175.7,286046997.8,N
1535886195.6,286046999.3,N
1535886215.4,286046999.5,N
1535886235.2,286046996.5,N
1535886255.1,286046995.0,Y
1535886256.0,286046995.0,P
1535886275.8,286046998.8,N
1535886295.7,286046998.1,N
1535886315.5,286046999.3,N
1535886335.3,286046998.4,N
1535886355.2,286046998.9,N
1535886375.0,286046998.8,N
1535886375.9,286046998.8,N
1535886395.8,286046998.3,N
1535886415.6,286046996.5,Y
1535886435.4,286046998.1,P
1535886455.3,286047000.3,P
1535886475.1,286046998.3,N
1535886495.8,286047000.0,N
1535886515.7,286046998.4,N
1535886535.5,286046998.3,N
1535886555.4,286047000.2,N
1535886575.2,286046999.8,N
1535886595.0,286047000.9,N
1535886595.9,286047000.9,N
1535886615.8,286047000.4,N
1535886635.6,286047000.2,N
1535886655.4,286047000.8,N
1535886675.3,286046999.5,N
1535886695.1,286046998.7,N
1535886715.9,286046998.3,N
1535886735.7,286047002.6,N
1535886755.5,286047004.4,Y
1535886775.4,286047002.0,P
1535886795.2,286047000.6,N
1535886815.0,286046997.0,P
1535886815.9,286046997.0,N
1535886835.8,286046996.6,N
1535886855.6,286046998.9,N
1535886875.4,286046997.0,N
1535886895.3,286046995.0,N
1535886915.1,286046993.6,Y
1535886935.9,286046995.4,P
1535886955.7,286046994.9,P
1535886975.5,286046995.4,P
1535886995.4,286046996.0,Y
1535887015.2,286046998.7,P
1535887035.0,286046996.6,N
1535887036.0,286046996.6,N
1535887055.8,286046997.4,N
1535887075.6,286046995.5,Y
1535887095.5,286046999.3,P
1535887115.3,286046997.0,N
1535887135.1,286046997.4,N
1535887155.9,286046996.0,Y
1535887175.7,286046995.7,P
1535887195.6,286046994.4,P
1535887215.4,286046990.5,P
1535887235.2,286046989.7,Y
1535887255.1,286046992.0,P
1535887256.0,286046992.0,P
1535887275.8,286046992.8,P
1535887295.6,286046991.7,Y
1535887315.5,286047000.2,P
1535887335.3,286046998.4,N
1535887355.2,286046997.8,N
1535887375.9,286046997.7,N
1535887395.7,286046995.5,N
1535887415.6,286046995.2,N
1535887435.4,286046995.6,N
1535887455.2,286046996.0,N
1535887475.1,286046996.0,N
1535887476.0,286046996.0,N
1535887495.8,286046995.2,N
1535887515.7,286046994.3,Y
1535887535.5,286046996.3,P
1535887555.3,286046996.3,P
1535887575.2,286046996.1,P
1535887595.0,286046995.7,Y
1535887595.9,286046995.7,P
1535887615.7,286046999.2,N
1535887635.6,286046997.4,N
1535887655.4,286046995.6,Y
1535887675.3,286046998.3,P
1535887695.1,286046999.5,N
1535887715.8,286046998.6,N
1535887735.7,286046997.4,Y
1535887755.5,286047000.4,P
1535887775.4,286047000.3,N
1535887795.2,286047000.3,N
1535887815.0,286047000.8,N
1535887815.9,286047000.8,N
1535887835.8,286046999.6,N
1535887855.6,286046998.8,N
1535887875.4,286046999.2,N
1535887895.3,286047001.1,N
1535887915.1,286046997.4,Y
1535887935.9,286047001.1,P
1535887955.7,286047011.9,P
1535887975.5,286046997.7,N
1535887995.4,286046996.8,N
1535888015.2,286046995.9,N
1535888035.0,286046993.7,N
1535888035.9,286046993.7,N
1535888055.8,286046993.8,N
1535888075.6,286046994.5,N
1535888095.5,286046995.2,N
1535888115.3,286046998.3,N
1535888135.1,286046995.0,N
1535888155.9,286046993.5,N
1535888175.7,286046996.9,N
1535888195.5,286046997.8,N
1535888215.4,286046995.6,N
1535888235.2,286046994.6,N
1535888255.1,286046994.7,N
1535888256.0,286046994.7,N
1535888275.8,286046991.9,N
1535888295.6,286046994.3,N
1535888315.5,286046993.5,N
1535888335.3,286046993.3,N
1535888355.1,286046994.0,N
1535888375.9,286046993.0,N
1535888395.7,286046992.4,N
1535888415.5,286046990.1,N
1535888435.4,286046992.8,N
1535888455.2,286046994.2,N
1535888475.1,286046993.2,N
1535888476.0,286046993.2,N
1535888495.8,286046990.5,N
1535888515.6,286046990.5,Y
1535888535.5,286046995.0,P
1535888555.3,286046997.6,P
1535888575.2,286046997.8,N
1535888595.9,286046995.0,Y
1535888615.7,286046999.4,P
1535888635.6,286046997.4,N
1535888655.4,286046997.5,N
1535888675.2,286046997.7,N
1535888695.1,286046999.4,N
1535888696.0,286046999.4,N
1535888715.8,286047002.2,N
1535888735.7,286047000.1,N
1535888755.5,286046999.3,N
1535888775.3,286046997.2,N
1535888795.2,286046997.8,N
1535888815.9,286046995.3,Y
1535888835.7,286046999.3,P
1535888855.6,286046996.0,P
1535888875.4,286046994.2,P
1535888895.3,286046997.7,N
1535888915.1,286046997.7,N
1535888916.0,286046997.7,N
1535888935.8,286046995.2,Y
1535888955.7,286046999.1,P
1535888975.5,286046998.9,N
1535888995.3,286046998.3,N
1535889015.2,286046999.3,N
1535889035.0,286046999.3,N
1535889035.9,286046999.3,N
1535889055.8,286046999.0,N
1535889075.6,286047000.8,N
1535889095.4,286046996.7,Y
1535889115.3,286046998.8,P
1535889135.1,286046996.6,P
1535889155.8,286046999.5,N
1535889175.7,286046998.8,N
1535889195.5,286047002.0,N
1535889215.4,286046998.5,N
1535889235.2,286046998.3,N
1535889255.0,286046999.3,N
1535889255.9,286046999.3,N
1535889275.8,286047000.7,N
1535889295.6,286046996.6,N
1535889315.4,286046997.4,N
1535889335.3,286046996.7,N
1535889355.1,286046999.1,N
1535889375.9,286046999.3,N
1535889395.7,286046999.5,N
1535889415.5,286046999.0,N
1535889435.4,286046995.8,Y
1535889455.2,286046995.8,P
1535889475.0,286046997.9,N
1535889475.9,286046997.9,N
1535889495.8,286046999.6,N
1535889515.6,286046996.2,Y
1535889535.5,286046997.9,P
1535889555.3,286046993.3,P
1535889575.1,286046994.3,N
1535889595.9,286046993.8,N
